Other Public Products
Issued by NWS Grand Forks, ND

Home | Current Version | Previous Version | Text Only | Print | Product List | Glossary Off
Versions: 1 2 3 4 5 6 7 8 9 10 11 12 13 14 15 16 17 18 19 20 21 22 23 24 25 26 27 28 29 30 31 32 33 34 35 36 37 38 39 40 41 42 43 44 45 46 47 48 49 50

000
FPUS83 KFGF 280610
OPUFGF
PRAIRIE TO PINES WEATHER ROUNDUP
NATIONAL WEATHER SERVICE EASTERN NORTH DAKOTA/GRAND FORKS ND
1200 AM CST FRI NOV 28 2014

 **SATELLITE DATA USED TO AUGMENT SKY COVER AT AUTOMATED STATIONS**
 *****  WEATHER ACROSS EASTERN NORTH DAKOTA  *****

CITY           SKY/WX    TMP DP  RH WIND       PRES   REMARKS
GRAND FORKS    MIX PCPN   9   4  80 SE14      30.10F WCI  -7
6HR MIN TEMP:   5; 6HR MAX TEMP:   9; 6HR PCP:  0.02;

GRAND FORKS AF CLOUDY     9   5  85 S9        30.09F WCI  -5
GRAND CITY NWS   N/A      9 N/A N/A S14         N/A  WCI  -8
BUXTON         NOT AVBL
DEVILS LAKE    CLOUDY     9  -2  61 SE10      29.98S WCI  -6
6HR MIN TEMP:   7; 6HR MAX TEMP:   9;

FARGO          CLOUDY    11   5  77 SE13      30.09F WCI  -4
6HR MIN TEMP:   8; 6HR MAX TEMP:  11; 6HR PCP:  0.06;

WAHPETON ARPT  CLOUDY    10   5  79 SE15      30.09F WCI  -6
$$

 *****  WEATHER ACROSS CENTRAL AND WESTERN NORTH DAKOTA  *****

CITY           SKY/WX    TMP DP  RH WIND       PRES   REMARKS
JAMESTOWN      CLOUDY     6   2  83 SE10      29.97F WCI  -9
6HR MIN TEMP:   5; 6HR MAX TEMP:   6; 6HR PCP:  0.04;

BISMARCK       PTCLDY    10   6  84 E9        29.89F WCI  -3
6HR MIN TEMP:  10; 6HR MAX TEMP:  12; 6HR PCP: TRACE;

MINOT          CLOUDY    10   5  80 E10       29.90F WCI  -4
6HR MIN TEMP:  10; 6HR MAX TEMP:  12; 6HR PCP:  0.01;

MINOT AFB      CLOUDY    10   6  86 SE14      29.91F WCI  -6
6HR MIN TEMP:   9; 6HR MAX TEMP:  12; 6HR PCP: TRACE;

GARRISON         N/A     11   7  84 E10       29.85F WCI  -3
6HR MIN TEMP:  11; 6HR MAX TEMP:  13; 6HR PCP:  0.01;

WILLISTON      CLOUDY    16  12  84 E5        29.81F WCI   9
6HR MIN TEMP:  13; 6HR MAX TEMP:  19;

DICKINSON      CLEAR     18  15  88 CALM      29.73S
6HR MIN TEMP:  18; 6HR MAX TEMP:  25;

HETTINGER      PTCLDY    21  18  88 CALM      29.76F
6HR MIN TEMP:  19; 6HR MAX TEMP:  24;

$$

 *****  OTHER OBSERVATIONS NORTHEAST NORTH DAKOTA  *****

CITY           SKY/WX    TMP DP  RH WIND       PRES   REMARKS
WALHALLA         N/A      7   1  78 SE8       30.10F WCI  -6
LANGDON        CLOUDY     7   1  78 SE10      30.00F WCI  -8
CAVALIER       CLOUDY     7   3  85 S8        30.10F WCI  -6
GRAFTON        LGT SNOW   9   5  85 SE10      30.12F WCI  -6
CANDO          CLOUDY     9   5  85 SE13      30.00S WCI  -7
FORT TOTTEN    NOT AVBL
ROLLA          CLOUDY     7   3  85 SE10      29.96F WCI  -8
RUGBY          CLOUDY     7   1  78 SE10      29.96F WCI  -8
 ***** THE ABOVE OBSERVATIONS ARE NON NWS ARE NOT QUALITY
        CONTROLLED AND MAY MIS-REPORT RAIN FOR SNOW...
$$

 *****  OTHER OBSERVATIONS SOUTHEAST NORTH DAKOTA *****

CITY           SKY/WX    TMP DP  RH WIND       PRES   REMARKS
COOPERSTOWN    NOT AVBL
VALLEY CITY    CLOUDY     5   3  92 SE13      30.02F WCI -12
OAKES            N/A      7   5  92 E17       29.99F WCI -12
GWINNER        CLOUDY    10   5  79 SE17      30.03S WCI  -7
BUFFALO        NOT AVBL
WYNDMERE         N/A      9   3  78 SE12        N/A  WCI  -6
 ***** THE ABOVE OBSERVATIONS ARE NON NWS ARE NOT QUALITY
       CONTROLLED AND MAY MIS-REPORT RAIN FOR SNOW...
$$

  *****  WEATHER ACROSS NORTHERN MINNESOTA  *****

CITY           SKY/WX    TMP DP  RH WIND       PRES   REMARKS
FLAG ISLAND    MOCLDY     5  -2  72 S8        30.15F WCI  -8
WARROAD        MOCLDY     7   0  72 CALM      30.15F
ROSEAU         CLOUDY     9   0  66 S5        30.15F WCI   0
HALLOCK        FLURRIES   9   3  78 S10       30.12F WCI  -6
THF RVR FALLS  CLOUDY     9   3  78 S7        30.11F WCI  -3
6HR MIN TEMP:   3; 6HR MAX TEMP:   9;

HALSTAD          N/A     10   5  79 SE12        N/A  WCI  -4
FOSSTON        FLURRIES   7   1  78 SE7       30.11F WCI  -5
BAUDETTE       CLOUDY     4  -3  73 S3        30.15F
6HR MIN TEMP:   0; 6HR MAX TEMP:   4;

WASKISH        CLOUDY     7   1  78 CALM      30.16S
CROOKSTON      CLOUDY    10   5  79 S12       30.12F WCI  -4
$$
  *****  WEATHER ACROSS CENTRAL AND WEST MINNESOTA  *****

CITY           SKY/WX    TMP DP  RH WIND       PRES   REMARKS
BEMIDJI        FLURRIES   7  -2  65 S5        30.14R WCI  -2
PARK RAPIDS    FLURRIES   5   1  83 SE9       30.13S WCI  -9
6HR MIN TEMP:   5; 6HR MAX TEMP:   6; 6HR PCP: TRACE;

WADENA         LGT SNOW   5   1  85 SE10      30.12F WCI -10
DETROIT LAKES  FLURRIES   9   5  85 SE13      30.11S WCI  -7
MOORHEAD       LGT SNOW  10   9  92 SE9       30.10F WCI  -2
FERGUS FALLS   LGT SNOW   9   3  78 SE13      30.13S WCI  -7
ELBOW LAKE     LGT SNOW   7   3  84 SE16G24   30.07F WCI -11
MORRIS MN      CLOUDY     7   3  85 SE22      30.07F WCI -14
STAPLES        LGT SNOW   3   1  92 SE6       30.15F WCI  -8
WHEATON        CLOUDY     7   1  78 SE22G28   30.09F WCI -14
$$
  *****  WEATHER ELSEWHERE ACROSS MINNESOTA  *****

CITY           SKY/WX    TMP DP  RH WIND       PRES   REMARKS
DULUTH         CLOUDY     6  -4  63 S7        30.18F WCI  -6
6HR MIN TEMP:   1; 6HR MAX TEMP:   7;

INTRNTL FALLS  CLOUDY     2  -6  69 CALM      30.17F
6HR MIN TEMP:  -5; 6HR MAX TEMP:   3;

ELY            MOCLDY     1  -4  78 CALM      30.18F
CLOQUET        CLOUDY     7  -4  61 S7        30.19F WCI  -5
BRAINERD       LGT SNOW   5   2  87 S7        30.18F VSB 1   WCI  -7
6HR MIN TEMP:   2; 6HR MAX TEMP:   6; 6HR PCP: TRACE;

HIBBING        CLOUDY     6  -4  63 VRB3      30.18S
6HR MIN TEMP:  -3; 6HR MAX TEMP:   6;

ALEXANDRIA     LGT SNOW   5   1  83 SE15      30.09F FOG     WCI -13
6HR MIN TEMP:   5; 6HR MAX TEMP:   6; 6HR PCP:  0.01;

SAINT CLOUD    LGT SNOW   7   1  76 SE10      30.22F WCI  -8
6HR MIN TEMP:   7; 6HR MAX TEMP:   8; 6HR PCP:  0.05;

MINNEAPOLIS    LGT SNOW   6   2  83 SE8       30.27F VSB 1   WCI  -7
6HR MIN TEMP:   5; 6HR MAX TEMP:   7; 6HR PCP:  0.02;

$$

  *****  WEATHER ACROSS SOUTH DAKOTA  *****

CITY           SKY/WX    TMP DP  RH WIND       PRES   REMARKS
SIOUX FALLS    CLOUDY    18  11  74 S16       30.00F WCI   3
6HR MIN TEMP:  12; 6HR MAX TEMP:  18;

BROOKINGS      NOT AVBL
WATERTOWN      CLOUDY    15   8  73 SE12      29.95F WCI   2
6HR MIN TEMP:  10; 6HR MAX TEMP:  15; 6HR PCP: TRACE;

HURON          PTCLDY    18  12  77 SE14      29.91F WCI   4
6HR MIN TEMP:  13; 6HR MAX TEMP:  18;

SISSETON         N/A      8   4  83 S15       30.04F WCI  -9
ABERDEEN       PTCLDY    14   8  77 SE5       29.96F WCI   6
6HR MIN TEMP:  14; 6HR MAX TEMP:  18; 6HR PCP: TRACE;

MITCHELL       PTCLDY    22  15  75 S15       29.94F WCI   9
PIERRE         PTCLDY    20  16  84 CALM      29.84F
6HR MIN TEMP:  18; 6HR MAX TEMP:  26;

MOBRIDGE       CLEAR     13   9  84 E12       29.84F WCI  -1
RAPID CITY     MOCLDY    36  26  67 S3        29.84F
6HR MIN TEMP:  27; 6HR MAX TEMP:  43;

$$

  *****  SOME WEATHER IN NEARBY STATES *****

CITY           SKY/WX    TMP DP  RH WIND       PRES   REMARKS
GLASGOW MT     CLOUDY    23  21  92 E15       29.69F FOG     WCI  10
6HR MIN TEMP:  23; 6HR MAX TEMP:  26;

GREAT FALLS MT MOCLDY    45  34  65 SW13      29.65F
6HR MIN TEMP:  41; 6HR MAX TEMP:  50;

CHEYENNE WY    CLEAR     50  20  30 W29G39    30.03F
6HR MIN TEMP:  48; 6HR MAX TEMP:  51;

SCOTTSBLUFF NE CLEAR     32  26  78 E6        29.97F
6HR MIN TEMP:  30; 6HR MAX TEMP:  51;

OMAHA NE       CLEAR     25  18  74 SE17      30.14F WCI  12
6HR MIN TEMP:  22; 6HR MAX TEMP:  25;

DES MOINES IA  MOCLDY    14   5  67 SE10      30.27F WCI   1
6HR MIN TEMP:  13; 6HR MAX TEMP:  15; 6HR PCP: TRACE;

DAVENPORT IA   CLOUDY    13   4  67 SW5       30.39F WCI   5
6HR MIN TEMP:   5; 6HR MAX TEMP:  13;

CHICAGO IL     PTCLDY    18  11  74 CALM      30.36F
6HR MIN TEMP:  15; 6HR MAX TEMP:  20;

EAU CLAIRE WI  CLOUDY     9   0  67 S3        30.30F
6HR MIN TEMP:  -1; 6HR MAX TEMP:   9;

LA CROSSE WI   CLOUDY    14   4  64 S6        30.34S WCI   5
6HR MIN TEMP:   8; 6HR MAX TEMP:  14;

$$

  *****  SOME NATIONAL WEATHER *****

CITY           SKY/WX    TMP DP  RH WIND       PRES   REMARKS
LA GUARDIA NY  PTCLDY    34  25  69 NW12      30.06R
6HR MIN TEMP:  34; 6HR MAX TEMP:  37;




USA.gov is the U.S. government's official web portal to all federal, state and local government web resources and services.